Flag for USA

Past Weather in Sterling, Virginia, USA — Yesterday and Last 2 Weeks

Now
83 °F

Passing clouds.


Feels Like: 82 °F
Forecast: 89 / 63 °F
Wind: 5 mph from North

Location: Washington-Dulles International Airport

Current Time: Jul 14, 2020 at 10:22:40 pm

Latest Report: Jul 14, 2020 at 8:52 pm


Visibility: 10 mi

Pressure: 30.04 "Hg

Humidity: 36%

Dew Point: 53 °F

Location of SterlingLocation

Past Weather in Sterling — Graph

°F

Sterling Temperature Yesterday

Maximum temperature yesterday: 87 °F (at 1:52 pm)
Minimum temperature yesterday: 68 °F (at 5:52 am)
Average temperature yesterday: 78 °F

High & Low Weather Summary for the Past Weeks

 TemperatureHumidityPressure
High95 °F (Jul 6, 4:41 pm)94% (Jul 6, 12:52 am)30.09 "Hg (Jul 6, 12:52 am)
Low64 °F (Jul 12, 4:52 am)31% (Jul 14, 3:52 pm)29.70 "Hg (Jul 11, 4:52 am)
Average79 °F66%29.90 "Hg
* Reported Jun 29 8:52 pm — Jul 14 8:52 pm, Sterling. Weather by CustomWeather, © 2020

Note: Actual official high and low records may vary slightly from our data, if they occured in-between our weather recording intervals... More about our weather records

Sterling Weather History for the Previous 24 Hours

Scroll right to see more
 ConditionsComfort  
Time TempWeatherWind HumidityBarometerVisibility
8:52 pm
Tue, Jul 14
83 °FPassing clouds.5 mph36%30.04 "Hg10 mi
7:52 pm85 °FPassing clouds.9 mph35%30.03 "Hg10 mi
6:52 pm86 °FSunny.7 mph32%30.01 "Hg10 mi
5:52 pm88 °FPassing clouds.5 mph31%30.01 "Hg10 mi
4:52 pm88 °FPassing clouds.8 mph31%29.99 "Hg10 mi
3:52 pm87 °FPassing clouds.8 mph31%30.00 "Hg10 mi
2:52 pm86 °FPassing clouds.7 mph33%30.00 "Hg10 mi
1:52 pm87 °FPassing clouds.14 mph33%30.01 "Hg10 mi
12:59 pm86 °FPassing clouds.8 mph39%30.02 "Hg10 mi
11:52 am84 °FPassing clouds.8 mph45%30.01 "Hg10 mi
10:52 am83 °FPassing clouds.12 mph46%30.01 "Hg10 mi
9:52 am81 °FSunny.7 mph47%30.01 "Hg10 mi
8:52 am78 °FPassing clouds.6 mph56%30.01 "Hg10 mi
7:52 am75 °FScattered clouds.7 mph64%30.00 "Hg10 mi
6:52 am71 °FScattered clouds.5 mph78%29.98 "Hg10 mi
5:52 am71 °FPassing clouds.5 mph78%29.96 "Hg10 mi
4:52 am71 °FPassing clouds.5 mph78%29.94 "Hg10 mi
3:52 am71 °FPassing clouds.6 mph78%29.93 "Hg10 mi
2:52 am70 °FPassing clouds.No wind81%29.93 "Hg10 mi
1:52 am73 °FPartly cloudy.No wind76%29.92 "Hg10 mi
12:52 am71 °FPassing clouds.No wind81%29.92 "Hg10 mi
11:52 pm
Mon, Jul 13
75 °FPartly cloudy.No wind71%29.92 "Hg10 mi
10:52 pm76 °FPassing clouds.5 mph67%29.91 "Hg10 mi
Weather by CustomWeather, © 2020

See weather overview